This demonstration page uses our WeatherBlox Daily Observations layout. Learn more.

Left ArrowRight Arrow

41.86663, -103.66717

Hourly Observations for April 23, 2016

Temp ( °F °C ) Dew Point ( °F °C ) Humidity (%) Winds ( mph kmh ) Pressure ( in mb ) Visibility ( mi km ) Precip ( " mm )
12:53 am 00:53 Clear 54 12.2 46 7.8 75 75 ENE 13 20 29.73 1007 10 16 N/A
1:53 am 01:53 Clear 54 12.2 46 7.8 75 75 E 16 26 29.69 1005 10 16 N/A
2:53 am 02:53 Clear 52 11.1 45 7.2 77 77 E 12 19 29.67 1005 10 16 N/A
3:53 am 03:53 Clear 50 10 44 6.7 80 80 E 10 17 29.67 1005 10 16 N/A
4:53 am 04:53 Clear 48 8.9 43 6.1 83 83 ESE 10 17 29.66 1004 10 16 N/A
5:53 am 05:53 Clear 48 8.9 44 6.7 86 86 E 9 15 29.65 1004 10 16 N/A
6:53 am 06:53 Sunny 49 9.4 44 6.7 83 83 ESE 13 20 29.65 1004 10 16 N/A
7:53 am 07:53 Sunny 51 10.6 45 7.2 80 80 ESE 12 19 29.64 1004 10 16 N/A
8:53 am 08:53 Sunny 54 12.2 46 7.8 75 75 SE 6 9 29.63 1004 10 16 N/A
9:53 am 09:53 Sunny 59 15 46 7.8 62 62 ESE 6 9 29.62 1003 10 16 N/A
10:53 am 10:53 Sunny 61 16.1 47 8.3 60 60 ESE 8 13 29.60 1002 10 16 N/A
11:53 am 11:53 Sunny 64 17.8 48 8.9 56 56 SSE 7 11 29.57 1001 10 16 N/A
12:53 pm 12:53 Sunny 69 20.6 48 8.9 47 47 ESE 6 9 29.54 1000 10 16 N/A
1:53 pm 13:53 Sunny 73 22.8 47 8.3 40 40 E 7 11 29.51 999 10 16 N/A
2:53 pm 14:53 Sunny 79 26.1 44 6.7 29 29 SE 12 19 29.46 998 10 16 N/A
3:53 pm 15:53 Sunny 81 27.2 38 3.3 21 21 SE 13 20 29.43 997 10 16 N/A
4:53 pm 16:53 Sunny 80 26.7 34 1.1 19 19 SE 17 28 29.42 996 10 16 N/A
5:53 pm 17:53 Sunny 79 26.1 34 1.1 20 20 SSE 13 20 29.40 996 10 16 N/A
6:53 pm 18:53 Sunny 73 22.8 40 4.4 30 30 ESE 7 11 29.40 996 10 16 N/A
7:53 pm 19:53 Mostly Clear with Nearby Thunderstorms 66 18.9 40 4.4 39 39 N N/A 29.41 996 10 16 N/A
8:10 pm 20:10 Partly Cloudy 64 18 39 4 40 40 W 26 43 29.44 997 10 16 N/A
8:53 pm 20:53 Partly Cloudy 61 16.1 41 5 48 48 WNW 26 43 29.49 999 10 16 N/A
9:53 pm 21:53 Cloudy 59 15 41 5 51 51 WNW 25 41 29.54 1000 10 16 N/A
10:53 pm 22:53 Mostly Cloudy with Light Rain 51 10.6 40 4.4 66 66 WNW 21 33 29.56 1001 10 16 N/A
11:53 pm 23:53 Cloudy 51 10.6 37 2.8 59 59 W 14 22 29.55 1001 10 16 N/A

Powered by AerisWeather